Time,TemperatureF,DewpointF,PressureIn,WindDirection,WindDirectionDegrees,WindSpeedMPH,WindSpeedGustMPH,Humidity,HourlyPrecipIn,Conditions,Clouds,dailyrainin,SoftwareType,DateUTC
2013-02-17 10:19:00,43.5,39.3,30.14,North,0,0.0,0.0,85,0.00,CLR,OVC,0.06,WeatherDisplay:10.37,2013-02-17 10:19:00,
2013-02-17 10:20:00,44.2,39.4,30.15,ESE,112,0.3,0.0,83,0.00,CLR,OVC,0.06,WeatherDisplay:10.37,2013-02-17 10:20:00,
2013-02-17 10:24:00,44.1,39.2,30.15,NNW,338,0.3,2.3,83,0.00,CLR,OVC,0.06,WeatherDisplay:10.37,2013-02-17 10:24:00,
2013-02-17 10:29:00,43.9,38.7,30.16,NNW,338,0.9,1.5,82,0.00,CLR,OVC,0.06,WeatherDisplay:10.37,2013-02-17 10:29:00,
2013-02-17 10:34:00,43.7,38.6,30.16,North,0,1.1,1.6,82,0.00,CLR,OVC,0.06,WeatherDisplay:10.37,2013-02-17 10:34:00,
2013-02-17 10:36:00,43.5,38.4,30.16,ESE,112,1.3,4.6,82,0.00,CLR,OVC,0.06,WeatherDisplay:10.37,2013-02-17 10:36:00,
2013-02-17 10:41:00,43.7,38.3,30.16,North,0,2.0,5.8,81,0.00,CLR,OVC,0.06,WeatherDisplay:10.37,2013-02-17 10:41:00,
2013-02-17 10:46:00,43.5,38.1,30.16,NE,45,2.1,3.5,81,0.00,CLR,OVC,0.06,WeatherDisplay:10.37,2013-02-17 10:46:00,
2013-02-17 10:51:00,43.3,37.9,30.16,North,0,2.1,4.0,81,0.00,CLR,OVC,0.06,WeatherDisplay:10.37,2013-02-17 10:51:00,
2013-02-17 10:56:00,43.5,37.8,30.16,NNE,22,2.3,4.6,80,0.00,CLR,OVC,0.06,WeatherDisplay:10.37,2013-02-17 10:56:00,
2013-02-17 11:01:00,43.3,37.3,30.16,NE,45,3.0,6.3,79,0.00,CLR,OVC,0.06,WeatherDisplay:10.37,2013-02-17 11:01:00,
2013-02-17 11:06:00,43.3,37.6,30.16,NNE,22,2.9,4.6,80,0.00,CLR,OVC,0.06,WeatherDisplay:10.37,2013-02-17 11:06:00,
2013-02-17 11:11:00,43.3,37.3,30.16,NNE,22,2.4,3.5,79,0.00,CLR,OVC,0.06,WeatherDisplay:10.37,2013-02-17 11:11:00,
2013-02-17 11:16:00,43.3,37.3,30.16,NNE,22,2.1,3.8,79,0.00,CLR,OVC,0.06,WeatherDisplay:10.37,2013-02-17 11:16:00,
2013-02-17 11:21:00,43.5,37.8,30.16,ENE,68,1.6,2.3,80,0.00,CLR,OVC,0.06,WeatherDisplay:10.37,2013-02-17 11:21:00,
2013-02-17 11:26:00,43.5,37.4,30.15,ENE,68,2.1,3.5,79,0.00,CLR,OVC,0.06,WeatherDisplay:10.37,2013-02-17 11:26:00,
2013-02-17 11:31:00,43.5,37.8,30.15,NE,45,2.0,2.3,80,0.00,CLR,OVC,0.06,WeatherDisplay:10.37,2013-02-17 11:31:00,
2013-02-17 11:36:00,43.5,37.4,30.15,NNE,22,1.5,2.3,79,0.00,CLR,OVC,0.06,WeatherDisplay:10.37,2013-02-17 11:36:00,
2013-02-17 11:41:00,43.7,37.6,30.15,NNE,22,1.8,4.6,79,0.00,CLR,OVC,0.06,WeatherDisplay:10.37,2013-02-17 11:41:00,
2013-02-17 11:46:00,43.7,37.6,30.15,North,0,2.2,4.6,79,0.00,CLR,OVC,0.06,WeatherDisplay:10.37,2013-02-17 11:46:00,
2013-02-17 11:51:00,43.9,37.8,30.15,SE,135,2.3,2.3,79,0.00,CLR,OVC,0.06,WeatherDisplay:10.37,2013-02-17 11:51:00,
2013-02-17 11:56:00,44.1,38.0,30.15,ESE,112,2.2,2.3,79,0.00,CLR,OVC,0.06,WeatherDisplay:10.37,2013-02-17 11:56:00,
2013-02-17 12:01:00,44.2,37.8,30.15,NE,45,2.6,2.6,78,0.00,CLR,OVC,0.06,WeatherDisplay:10.37,2013-02-17 12:01:00,
2013-02-17 12:06:00,44.4,38.0,30.14,North,0,2.9,4.6,78,0.00,CLR,OVC,0.06,WeatherDisplay:10.37,2013-02-17 12:06:00,
2013-02-17 12:11:00,44.4,37.7,30.14,NE,45,2.5,2.5,77,0.00,CLR,OVC,0.06,WeatherDisplay:10.37,2013-02-17 12:11:00,
2013-02-17 12:17:00,44.8,38.0,30.14,ENE,68,2.5,2.5,77,0.00,CLR,OVC,0.06,WeatherDisplay:10.37,2013-02-17 12:17:00,
2013-02-17 12:22:00,44.8,38.0,30.14,NE,45,2.3,2.3,77,0.00,CLR,OVC,0.06,WeatherDisplay:10.37,2013-02-17 12:22:00,
2013-02-17 12:27:00,45.0,37.8,30.13,NE,45,2.5,4.6,76,0.00,CLR,OVC,0.06,WeatherDisplay:10.37,2013-02-17 12:27:00,
2013-02-17 12:32:00,45.1,38.0,30.13,NNE,22,2.6,2.6,76,0.00,CLR,OVC,0.06,WeatherDisplay:10.37,2013-02-17 12:32:00,
2013-02-17 12:37:00,45.0,37.8,30.13,North,0,2.9,4.6,76,0.00,CLR,OVC,0.06,WeatherDisplay:10.37,2013-02-17 12:37:00,
2013-02-17 12:42:00,45.0,38.2,30.13,ENE,68,2.9,5.8,77,0.00,CLR,OVC,0.06,WeatherDisplay:10.37,2013-02-17 12:42:00,
2013-02-17 12:47:00,45.0,37.8,30.13,ENE,68,2.8,3.5,76,0.00,CLR,OVC,0.06,WeatherDisplay:10.37,2013-02-17 12:47:00,
2013-02-17 12:52:00,45.1,38.0,30.13,NNE,22,2.8,3.5,76,0.00,CLR,OVC,0.06,WeatherDisplay:10.37,2013-02-17 12:52:00,
2013-02-17 12:57:00,45.1,38.4,30.13,NE,45,3.1,4.6,77,0.00,CLR,OVC,0.06,WeatherDisplay:10.37,2013-02-17 12:57:00,
2013-02-17 13:02:00,45.1,38.0,30.13,NNE,22,3.1,3.5,76,0.00,CLR,OVC,0.06,WeatherDisplay:10.37,2013-02-17 13:02:00,
2013-02-17 13:07:00,45.3,38.5,30.11,NNE,22,2.6,4.6,77,0.00,CLR,OVC,0.06,WeatherDisplay:10.37,2013-02-17 13:07:00,
2013-02-17 13:12:00,45.5,38.7,30.11,ENE,68,2.5,4.6,77,0.00,CLR,OVC,0.06,WeatherDisplay:10.37,2013-02-17 13:12:00,
2013-02-17 13:17:00,45.3,38.5,30.11,NW,315,2.6,4.6,77,0.00,CLR,OVC,0.06,WeatherDisplay:10.37,2013-02-17 13:17:00,
2013-02-17 13:22:00,45.5,38.7,30.11,ENE,68,2.5,4.8,77,0.00,CLR,OVC,0.06,WeatherDisplay:10.37,2013-02-17 13:22:00,
2013-02-17 13:27:00,45.3,38.5,30.11,NNE,22,2.4,2.4,77,0.00,CLR,OVC,0.06,WeatherDisplay:10.37,2013-02-17 13:27:00,
2013-02-17 13:32:00,45.5,38.7,30.11,North,0,2.6,5.8,77,0.00,CLR,OVC,0.06,WeatherDisplay:10.37,2013-02-17 13:32:00,
2013-02-17 13:37:00,45.7,39.2,30.11,ENE,68,2.3,2.3,78,0.00,CLR,OVC,0.06,WeatherDisplay:10.37,2013-02-17 13:37:00,
2013-02-17 13:42:00,45.7,39.2,30.11,NNE,22,1.8,2.3,78,0.00,CLR,OVC,0.06,WeatherDisplay:10.37,2013-02-17 13:42:00,
2013-02-17 13:47:00,45.7,39.2,30.10,NNE,22,2.2,2.3,78,0.00,CLR,OVC,0.06,WeatherDisplay:10.37,2013-02-17 13:47:00,
2013-02-17 13:52:00,45.9,39.1,30.10,NNE,22,2.3,3.5,77,0.00,CLR,OVC,0.06,WeatherDisplay:10.37,2013-02-17 13:52:00,
2013-02-17 13:57:00,45.9,38.7,30.10,NE,45,2.0,2.3,76,0.00,CLR,OVC,0.06,WeatherDisplay:10.37,2013-02-17 13:57:00,
2013-02-17 14:02:00,45.9,38.7,30.10,NNE,22,2.2,4.6,76,0.00,CLR,OVC,0.06,WeatherDisplay:10.37,2013-02-17 14:02:00,
2013-02-17 14:07:00,46.2,39.4,30.10,North,0,2.8,3.5,77,0.00,CLR,OVC,0.06,WeatherDisplay:10.37,2013-02-17 14:07:00,
2013-02-17 14:12:00,46.4,39.2,30.10,NNE,22,2.3,2.3,76,0.00,CLR,OVC,0.06,WeatherDisplay:10.37,2013-02-17 14:12:00,
2013-02-17 14:17:00,46.8,39.6,30.10,North,0,2.2,2.3,76,0.00,CLR,OVC,0.06,WeatherDisplay:10.37,2013-02-17 14:17:00,
2013-02-17 14:22:00,46.8,39.6,30.10,NNE,22,2.4,4.6,76,0.00,CLR,OVC,0.06,WeatherDisplay:10.37,2013-02-17 14:22:00,
2013-02-17 14:27:00,47.1,39.9,30.09,North,0,2.5,2.5,76,0.00,CLR,OVC,0.06,WeatherDisplay:10.37,2013-02-17 14:27:00,
2013-02-17 14:32:00,47.3,40.1,30.09,NNE,22,2.5,4.6,76,0.00,CLR,OVC,0.06,WeatherDisplay:10.37,2013-02-17 14:32:00,
2013-02-17 14:37:00,47.5,40.3,30.09,NE,45,2.4,4.6,76,0.00,CLR,OVC,0.06,WeatherDisplay:10.37,2013-02-17 14:37:00,
2013-02-17 14:42:00,47.5,39.9,30.09,NNE,22,2.6,4.6,75,0.00,CLR,OVC,0.06,WeatherDisplay:10.37,2013-02-17 14:42:00,
2013-02-17 14:47:00,47.3,40.1,30.09,North,0,2.6,2.6,76,0.00,CLR,OVC,0.06,WeatherDisplay:10.37,2013-02-17 14:47:00,
2013-02-17 14:52:00,47.3,40.1,30.09,NNE,22,2.2,3.5,76,0.00,CLR,OVC,0.06,WeatherDisplay:10.37,2013-02-17 14:52:00,
2013-02-17 14:57:00,47.1,39.6,30.09,ESE,112,2.0,2.3,75,0.00,CLR,OVC,0.06,WeatherDisplay:10.37,2013-02-17 14:57:00,
2013-02-17 15:02:00,47.3,40.1,30.09,NNE,22,2.0,2.3,76,0.00,CLR,OVC,0.06,WeatherDisplay:10.37,2013-02-17 15:02:00,
2013-02-17 15:07:00,47.1,39.6,30.09,NE,45,1.8,2.3,75,0.00,CLR,OVC,0.06,WeatherDisplay:10.37,2013-02-17 15:07:00,
2013-02-17 15:12:00,46.9,40.1,30.09,ENE,68,1.7,2.3,77,0.00,CLR,OVC,0.06,WeatherDisplay:10.37,2013-02-17 15:12:00,
2013-02-17 15:17:00,46.9,40.1,30.09,NE,45,1.5,4.6,77,0.00,CLR,OVC,0.06,WeatherDisplay:10.37,2013-02-17 15:17:00,
2013-02-17 15:22:00,47.1,40.3,30.09,NE,45,1.7,3.6,77,0.00,CLR,OVC,0.06,WeatherDisplay:10.37,2013-02-17 15:22:00,
2013-02-17 15:27:00,46.9,39.8,30.09,NE,45,1.6,1.6,76,0.00,CLR,OVC,0.06,WeatherDisplay:10.37,2013-02-17 15:27:00,
2013-02-17 15:32:00,46.9,40.1,30.09,NE,45,1.5,3.5,77,0.00,CLR,OVC,0.06,WeatherDisplay:10.37,2013-02-17 15:32:00,
2013-02-17 15:37:00,47.3,40.5,30.09,NE,45,1.3,2.3,77,0.00,CLR,OVC,0.06,WeatherDisplay:10.37,2013-02-17 15:37:00,
2013-02-17 15:42:00,47.1,40.3,30.09,NE,45,1.3,1.3,77,0.00,CLR,OVC,0.06,WeatherDisplay:10.37,2013-02-17 15:42:00,
2013-02-17 15:47:00,47.1,40.3,30.09,NE,45,1.3,2.3,77,0.00,CLR,OVC,0.06,WeatherDisplay:10.37,2013-02-17 15:47:00,
2013-02-17 15:52:00,47.3,40.5,30.09,East,90,1.4,2.8,77,0.00,CLR,OVC,0.06,WeatherDisplay:10.37,2013-02-17 15:52:00,
2013-02-17 15:57:00,47.3,40.5,30.09,ENE,68,1.3,2.3,77,0.00,CLR,OVC,0.06,WeatherDisplay:10.37,2013-02-17 15:57:00,
2013-02-17 16:02:00,47.3,40.5,30.09,ESE,112,1.0,2.3,77,0.00,CLR,OVC,0.06,WeatherDisplay:10.37,2013-02-17 16:02:00,
2013-02-17 16:07:00,47.3,40.5,30.09,North,0,0.7,2.3,77,0.00,CLR,OVC,0.06,WeatherDisplay:10.37,2013-02-17 16:07:00,
2013-02-17 16:12:00,47.3,40.1,30.09,ENE,68,0.7,3.5,76,0.00,CLR,OVC,0.06,WeatherDisplay:10.37,2013-02-17 16:12:00,
2013-02-17 16:17:00,47.3,40.5,30.09,NE,45,1.1,1.1,77,0.00,CLR,OVC,0.06,WeatherDisplay:10.37,2013-02-17 16:17:00,
2013-02-17 16:22:00,47.1,40.3,30.09,ENE,68,1.5,4.6,77,0.00,CLR,OVC,0.06,WeatherDisplay:10.37,2013-02-17 16:22:00,
2013-02-17 16:27:00,46.9,40.1,30.09,North,0,1.1,3.5,77,0.00,CLR,OVC,0.06,WeatherDisplay:10.37,2013-02-17 16:27:00,
2013-02-17 16:32:00,46.9,40.4,30.09,North,0,0.7,1.1,78,0.00,CLR,OVC,0.06,WeatherDisplay:10.37,2013-02-17 16:32:00,
2013-02-17 16:37:00,46.8,40.3,30.09,NNE,22,0.1,0.0,78,0.00,CLR,OVC,0.06,WeatherDisplay:10.37,2013-02-17 16:37:00,
2013-02-17 16:42:00,46.6,40.1,30.09,North,0,0.1,0.0,78,0.00,CLR,OVC,0.06,WeatherDisplay:10.37,2013-02-17 16:42:00,
2013-02-17 16:47:00,46.4,39.9,30.07,North,0,0.2,1.1,78,0.00,CLR,OVC,0.06,WeatherDisplay:10.37,2013-02-17 16:47:00,
2013-02-17 16:52:00,46.4,39.9,30.07,NE,45,0.2,0.0,78,0.00,CLR,OVC,0.06,WeatherDisplay:10.37,2013-02-17 16:52:00,
2013-02-17 16:57:00,46.4,39.9,30.07,NNE,22,0.1,0.0,78,0.00,CLR,OVC,0.06,WeatherDisplay:10.37,2013-02-17 16:57:00,
2013-02-17 17:02:00,46.2,39.7,30.07,NNE,22,0.1,0.0,78,0.00,CLR,OVC,0.06,WeatherDisplay:10.37,2013-02-17 17:02:00,
2013-02-17 17:07:00,45.9,39.4,30.08,North,0,0.2,1.1,78,0.00,CLR,OVC,0.06,WeatherDisplay:10.37,2013-02-17 17:07:00,
2013-02-17 17:12:00,45.7,39.2,30.08,NNE,22,0.2,0.0,78,0.00,CLR,OVC,0.06,WeatherDisplay:10.37,2013-02-17 17:12:00,
2013-02-17 17:17:00,45.5,39.4,30.08,SSE,158,0.0,0.0,79,0.00,CLR,OVC,0.06,WeatherDisplay:10.37,2013-02-17 17:17:00,
2013-02-17 17:22:00,45.3,39.2,30.08,North,0,0.0,0.0,79,0.00,CLR,OVC,0.06,WeatherDisplay:10.37,2013-02-17 17:22:00,
2013-02-17 17:27:00,45.1,39.0,30.08,NE,45,0.0,0.0,79,0.00,CLR,OVC,0.06,WeatherDisplay:10.37,2013-02-17 17:27:00,
2013-02-17 17:32:00,45.1,39.0,30.08,NW,315,0.0,0.0,79,0.00,CLR,OVC,0.06,WeatherDisplay:10.37,2013-02-17 17:32:00,
2013-02-17 17:37:00,44.8,38.7,30.08,NE,45,0.0,0.0,79,0.00,CLR,OVC,0.06,WeatherDisplay:10.37,2013-02-17 17:37:00,
2013-02-17 17:42:00,44.6,38.5,30.08,NW,315,0.0,0.0,79,0.00,CLR,OVC,0.06,WeatherDisplay:10.37,2013-02-17 17:42:00,
2013-02-17 17:48:00,44.2,38.1,30.08,NNE,22,0.0,0.0,79,0.00,CLR,OVC,0.06,WeatherDisplay:10.37,2013-02-17 17:48:00,
2013-02-17 17:53:00,44.1,38.0,30.08,ESE,112,0.0,0.0,79,0.00,CLR,OVC,0.06,WeatherDisplay:10.37,2013-02-17 17:53:00,
2013-02-17 17:58:00,43.7,37.6,30.08,ENE,68,0.1,1.3,79,0.00,CLR,OVC,0.06,WeatherDisplay:10.37,2013-02-17 17:58:00,
2013-02-17 18:03:00,43.7,37.6,30.08,NNE,22,0.1,0.0,79,0.00,CLR,OVC,0.06,WeatherDisplay:10.37,2013-02-17 18:03:00,
2013-02-17 18:08:00,43.5,37.4,30.08,NNW,338,0.1,0.0,79,0.00,CLR,OVC,0.06,WeatherDisplay:10.37,2013-02-17 18:08:00,
2013-02-17 18:13:00,43.3,37.3,30.08,NNE,22,0.0,0.0,79,0.00,CLR,OVC,0.06,WeatherDisplay:10.37,2013-02-17 18:13:00,
2013-02-17 18:18:00,43.0,36.9,30.08,NNE,22,0.0,0.0,79,0.00,CLR,OVC,0.06,WeatherDisplay:10.37,2013-02-17 18:18:00,
2013-02-17 18:24:00,42.8,36.7,30.08,East,90,0.1,1.5,79,0.00,CLR,OVC,0.06,WeatherDisplay:10.37,2013-02-17 18:24:00,
2013-02-17 18:30:00,42.6,36.6,30.08,NNE,22,0.3,0.0,79,0.00,CLR,OVC,0.06,WeatherDisplay:10.37,2013-02-17 18:30:00,
2013-02-17 18:35:00,42.4,36.7,30.08,NNE,22,0.1,0.0,80,0.00,CLR,OVC,0.06,WeatherDisplay:10.37,2013-02-17 18:35:00,
2013-02-17 18:40:00,42.3,36.5,30.08,North,0,0.0,0.0,80,0.00,CLR,OVC,0.06,WeatherDisplay:10.37,2013-02-17 18:40:00,
2013-02-17 18:45:00,42.1,36.4,30.07,NNE,22,0.0,0.0,80,0.00,CLR,OVC,0.06,WeatherDisplay:10.37,2013-02-17 18:45:00,
2013-02-17 18:50:00,41.9,36.2,30.07,NE,45,0.0,0.0,80,0.00,CLR,OVC,0.06,WeatherDisplay:10.37,2013-02-17 18:50:00,
2013-02-17 18:55:00,41.9,36.2,30.07,North,0,0.0,0.0,80,0.00,CLR,OVC,0.06,WeatherDisplay:10.37,2013-02-17 18:55:00,
2013-02-17 19:00:00,41.5,35.8,30.07,ENE,68,0.0,0.0,80,0.00,CLR,OVC,0.06,WeatherDisplay:10.37,2013-02-17 19:00:00,
2013-02-17 19:05:00,41.4,35.7,30.08,ENE,68,0.0,2.3,80,0.00,CLR,OVC,0.06,WeatherDisplay:10.37,2013-02-17 19:05:00,
2013-02-17 19:10:00,41.2,35.5,30.08,NE,45,0.0,0.0,80,0.00,CLR,OVC,0.06,WeatherDisplay:10.37,2013-02-17 19:10:00,
2013-02-17 19:15:00,41.2,35.5,30.08,NNE,22,0.0,0.0,80,0.00,CLR,OVC,0.06,WeatherDisplay:10.37,2013-02-17 19:15:00,
2013-02-17 19:20:00,40.6,35.0,30.08,NE,45,0.0,0.0,80,0.00,CLR,OVC,0.06,WeatherDisplay:10.37,2013-02-17 19:20:00,
2013-02-17 19:25:00,40.6,35.0,30.07,NNE,22,0.0,0.0,80,0.00,CLR,OVC,0.06,WeatherDisplay:10.37,2013-02-17 19:25:00,
2013-02-17 19:30:00,40.5,34.8,30.07,NNE,22,0.0,0.0,80,0.00,CLR,OVC,0.06,WeatherDisplay:10.37,2013-02-17 19:30:00,
2013-02-17 19:36:00,40.5,34.8,30.07,North,0,0.0,0.0,80,0.00,CLR,OVC,0.06,WeatherDisplay:10.37,2013-02-17 19:36:00,
2013-02-17 19:41:00,40.1,34.4,30.07,North,0,0.0,0.0,80,0.00,CLR,OVC,0.06,WeatherDisplay:10.37,2013-02-17 19:41:00,
2013-02-17 19:46:00,39.9,34.2,30.09,North,0,0.0,0.0,80,0.00,CLR,OVC,0.06,WeatherDisplay:10.37,2013-02-17 19:46:00,
2013-02-17 19:51:00,39.9,34.2,30.09,North,0,0.0,0.0,80,0.00,CLR,OVC,0.06,WeatherDisplay:10.37,2013-02-17 19:51:00,
2013-02-17 19:56:00,39.7,34.1,30.09,North,0,0.0,0.0,80,0.00,CLR,OVC,0.06,WeatherDisplay:10.37,2013-02-17 19:56:00,
2013-02-17 20:01:00,39.7,34.1,30.09,NNW,338,0.0,0.0,80,0.00,CLR,OVC,0.06,WeatherDisplay:10.37,2013-02-17 20:01:00,
2013-02-17 20:06:00,39.4,33.7,30.08,NW,315,0.0,0.0,80,0.00,CLR,OVC,0.06,WeatherDisplay:10.37,2013-02-17 20:06:00,
2013-02-17 20:11:00,39.2,33.5,30.08,NNE,22,0.0,0.0,80,0.00,CLR,OVC,0.06,WeatherDisplay:10.37,2013-02-17 20:11:00,
2013-02-17 20:16:00,39.4,33.7,30.08,North,0,0.0,0.0,80,0.00,CLR,OVC,0.06,WeatherDisplay:10.37,2013-02-17 20:16:00,
2013-02-17 20:21:00,39.0,33.4,30.08,NNW,338,0.0,0.0,80,0.00,CLR,OVC,0.06,WeatherDisplay:10.37,2013-02-17 20:21:00,
2013-02-17 20:26:00,39.0,33.7,30.08,East,90,0.0,0.0,81,0.00,CLR,OVC,0.06,WeatherDisplay:10.37,2013-02-17 20:26:00,
2013-02-17 20:31:00,39.0,33.7,30.08,NE,45,0.0,0.0,81,0.00,CLR,OVC,0.06,WeatherDisplay:10.37,2013-02-17 20:31:00,
2013-02-17 20:36:00,38.7,33.3,30.08,NNW,338,0.0,0.0,81,0.00,CLR,OVC,0.06,WeatherDisplay:10.37,2013-02-17 20:36:00,
2013-02-17 20:41:00,38.7,33.3,30.08,NE,45,0.0,0.0,81,0.00,CLR,OVC,0.06,WeatherDisplay:10.37,2013-02-17 20:41:00,
2013-02-17 20:46:00,38.5,33.2,30.08,North,0,0.0,0.0,81,0.00,CLR,OVC,0.06,WeatherDisplay:10.37,2013-02-17 20:46:00,
2013-02-17 20:51:00,38.7,33.3,30.08,North,0,0.0,0.0,81,0.00,CLR,OVC,0.06,WeatherDisplay:10.37,2013-02-17 20:51:00,